Showing default

COSMOS 1168, 11735

Orbit data source: Space-Track

COSMOS 1168, 11735 is a payload satellite owned by VMF (CIS) in LEO that was launched on Mon, 17 Mar 1980 UTC via a KOSMOS 11K65M launch vehicle from the Plesetsk Missile And Space Complex (PKMTR). Payload-class satellites include a variety of spacecraft equipped with specific instruments for various scientific and technological missions. These include communications satellites like Starlink; space stations such as the ISS; scientific satellites like the Hubble; Earth observation satellites from companies like Planet Labs, Umbra, and HawkEye 360; GPS; miniature CubeSats for education and research; and military/defense satellites.

Loading next visibility...
Identifier
11735, 1980-022A
Orbit
LEO
Last TLE update
10 hours ago
Origin
Manufacturer
Omsk Av. Zav.
Mission
Civil Navigation
Bus & Motor
KAUR-1 11F643, Unknown motor
Mass
800 kg wet, 800 kg dry
Launch date (UTC)
1980-03-17 (45 years ago)
Launch vehicle
KOSMOS 11K65M
Launch site
Plesetsk Missile And Space Complex (PKMTR)
Object type
Payload
Rocket body
Debris
Shape & HBR
Cyl, 5 m
Radar Cross Section
9.978 m², Large (>1 m²)

Expand to show TLE details & history

TLE from 10 hours ago
0 COSMOS 1168
1 11735U 80022A   25186.49431300  .00000054  00000-0  40250-4 0  9999
2 11735  82.9463 171.2256 0034046 247.3836 231.5596 13.75211375272507
Epoch: 2025-07-05T11:51Z
TLE epoch observation values (Epoch: 2025-07-05T11:51:48.643Z)
Latitude
60.66953°
Longitude
-123.11366°
Altitude
1,006.899 km
Speed
7.346 km/s
True Right ascension
22h 34m 16s
True Declination
60° 31' 39"
Sunlit
Object was in daylight at epoch
Visualization orbit readout
Latitude
67.30493°
Longitude
86.34381°
Altitude
1,017.61 km
Speed
7.337 km/s
Apparent Right ascension
19h 47m 40s
Apparent Declination
40° 50' 50"
Sunlit
Object is in daylight
Visualization observer readout
Local Sidereal Time
10:01:49
Azimuth
24.758° NE
Elevation
-3.665°
Doppler factor
1
Orbital elements
Apogee altitude
1,003.114 km
Perigee altitude
953.024 km
Semi-major axis
7,356.206 km
Eccentricity
0.0034
Inclination
82.9463°
RAAN
171.2256°
Arg. of periapsis
247.3836°
True anomaly
Unknown
Mean anomaly
231.5596°
Eccentric anomaly
Unknown
Mean motion
3.44003 °/min
Orbital period
104.65 mins
BSTAR
0.00004025
Loading maneuver chart data...
Loading SW <> Apogee altitude chart data...
Loading historical data...
Loading historical data...
Loading historical data...
Loading historical data...
Loading historical data...
Loading historical data...
Loading historical data...
Other satellites on launch #22 in the year 1980 (1980-03-17 UTC)

COSMOS 1168 Visibility forecast

Observer location: undefined°, undefined°

Span
Click to sort rows by Start time (UTC) header in descending order
Start Az.
Max El. time (UTC)
Max El. Az.
Max El.
End time (UTC)
End Az.
11 mins2025-07-05 23:36:41.670Z179.085° S2025-07-05 23:42:41.670Z49.652° ENE43.797°2025-07-05 23:47:41.670Z10.422° NNE
5 mins2025-07-06 01:26:41.670Z274.389° WNW2025-07-06 01:28:41.670Z295.839° NW15.274°2025-07-06 01:31:41.670Z325.489° NNW
11 mins2025-07-06 10:34:41.670Z1.814° NNE2025-07-06 10:39:41.670Z73.96° E41.685°2025-07-06 10:45:41.670Z161.065° S
7 mins2025-07-06 12:21:41.670Z310.175° NW2025-07-06 12:24:41.670Z277.542° WNW17.653°2025-07-06 12:28:41.670Z236.982° WSW
|